Temperature
18 18 18 18 18 18 17 17 17 17 17 17 17 17 17 18 18 17 17 17 17 17 17 17 17 17 17 17 17 17 17 17 17 17 16 16 16 16 16 16 16 16 16
17 17 18 18 18 18 17 17 17 17 17 17 17 17 18 18 18 17 17 17 17 17 17 17 17 17 17 17 17 17 17 17 17 16 16 16 16 16 16 16 16 16 16
17 17 18 18 18 17 17 17 17 17 17 17 17 17 18 17 18 17 17 17 17 17 17 17 17 17 17 17 17 17 16 16 16 16 16 16 16 16 16 16 16 16 16
18 18 18 18 18 17 17 17 17 17 17 17 17 17 17 17 18 17 17 17 17 17 17 17 17 17 17 17 17 16 16 16 17 16 16 16 16 16 16 16 16 16 16
18 18 18 18 17 17 17 17 17 17 17 17 17 17 17 17 17 17 17 17 17 17 17 17 17 17 17 17 17 16 16 16 16 16 16 16 16 16 16 16 16 16 16
18 18 18 17 17 17 17 17 17 17 17 17 17 17 17 17 17 17 17 17 17 17 17 17 17 17 17 17 16 16 16 16 16 16 16 16 16 16 16 16 16 16 16
18 18 18 17 17 17 17 17 17 17 17 17 17 17 17 17 17 17 17 17 17 17 17 17 17 17 17 17 17 17 17 16 16 16 16 16 16 16 16 16 16 16 16
18 18 18 17 17 17 17 17 17 17 17 17 17 17 17 17 17 17 17 17 17 17 17 17 17 17 17 17 17 17 17 17 16 16 16 16 16 16 16 16 16 16 16
18 18 18 17 17 17 17 17 17 17 17 17 17 17 17 17 17 17 17 17 17 17 17 17 17 17 17 17 17 17 17 17 17 16 16 16 16 16 16 16 16 16 16
18 18 17 17 17 17 17 17 17 17 17 17 17 17 17 17 17 16 17 17 17 17 17 17 17 17 17 17 17 17 17 17 17 16 16 16 16 16 16 16 16 16 16
18 18 17 17 17 17 17 17 17 17 17 17 17 17 17 17 17 16 16 17 17 17 17 17 17 17 17 17 17 17 17 16 16 16 16 16 16 16 16 16 16 16 15
18 18 18 17 17 17 17 17 17 17 17 17 17 17 17 17 17 17 16 16 16 17 17 17 16 17 16 16 16 16 16 16 16 16 16 16 16 16 16 16 16 15 15
18 18 17 17 17 17 17 17 17 17 17 17 17 17 17 17 17 16 16 16 16 16 16 16 16 16 16 16 16 16 16 16 16 16 16 16 16 16 16 16 15 15 15
17 17 17 17 17 17 17 17 17 17 17 17 17 17 16 16 16 16 16 16 15 15 16 16 16 16 16 16 16 16 16 16 16 16 16 16 16 16 16 15 15 15 15
17 17 17 17 17 17 17 17 17 17 17 17 16 16 16 16 16 16 16 16 15 15 15 16 16 16 16 16 16 16 16 16 16 16 15 15 15 15 15 15 15 15 15
17 17 17 17 17 17 17 17 17 16 16 16 16 16 16 16 16 16 16 16 15 15 15 15 15 15 15 15 15 15 16 16 15 15 15 15 15 15 15 15 15 15 15
17 17 17 17 17 17 17 17 17 16 16 16 16 16 16 16 16 16 16 15 15 15 15 15 15 15 15 15 15 15 15 15 15 15 15 15 15 15 15 15 15 15 15
16 16 16 16 16 16 16 16 16 16 16 16 16 16 16 16 16 15 15 15 15 15 15 15 15 15 15 15 15 15 15 15 15 15 15 15 15 15 15 15 15 15 15
16 16 16 16 16 16 16 16 16 16 16 16 16 16 15 15 15 15 15 15 15 15 15 15 15 15 15 15 15 15 15 15 15 15 15 15 15 15 15 15 15 15 15
16 16 16 15 15 15 15 15 15 15 15 15 15 15 15 15 15 15 15 15 15 15 14 14 14 14 14 14 14 14 14 14 14 14 14 14 14 14 14 14 15 14 14
15 15 15 15 15 15 15 15 15 15 15 15 15 15 15 15 15 14 14 14 14 14 14 14 14 14 14 14 14 14 14 14 14 14 14 14 14 14 14 14 14 14 14
15 15 15 15 15 15 15 15 14 14 14 15 15 15 14 14 14 14 14 14 14 14 14 13 13 13 13 13 14 14 13 13 13 14 14 14 14 14 14 14 14 14 14
15 15 15 15 15 15 14 14 14 14 14 14 14 14 14 14 14 14 14 14 14 13 13 13 13 13 13 13 13 13 13 13 13 13 13 13 13 13 13 13 13 13 13
14 14 14 14 14 14 14 14 14 14 14 14 14 13 13 13 13 13 13 13 13 13 13 13 13 13 13 13 13 13 13 13 13 13 13 13 13 13 13 13 13 13 13
14 14 14 14 14 13 13 13 14 14 13 13 13 13 13 13 13 13 13 13 13 13 13 13 13 13 12 12 12 12 12 12 12 12 12 12 12 12 13 13 13 13 13
14 13 13 13 13 13 13 13 13 13 13 13 13 13 13 13 13 13 13 13 13 13 13 13 13 12 12 12 12 12 12 12 11 11 12 12 12 12 12 12 12 12 12
Wind_Speed
0 1 1 1 1 1 2 1 1 2 2 2 3 3 4 4 4 5 5 8 9 10 10 10 9 9 9 10 10 10 10 10 10 10 10 10 10 9 9 9 9 9 9
2 1 1 1 1 2 2 2 2 2 2 2 2 2 3 4 3 4 5 6 8 9 10 10 10 10 10 9 9 10 10 10 10 10 10 10 10 10 9 9 9 8 8
3 1 1 1 1 2 2 2 2 1 2 2 2 2 2 3 3 4 5 5 6 8 9 9 10 10 10 10 10 10 10 10 10 10 10 10 10 10 10 10 9 8 8
3 2 1 1 1 2 2 2 2 2 2 2 1 1 1 2 3 4 4 5 5 6 7 9 10 10 10 10 10 10 9 9 9 10 10 10 10 10 11 10 10 9 9
3 2 1 1 1 1 2 2 2 2 2 2 1 1 1 2 2 3 4 4 5 5 6 7 9 10 10 10 10 10 11 11 11 10 10 10 9 10 11 11 11 10 9
3 3 2 1 2 2 1 2 2 2 2 1 1 0 1 1 1 2 3 3 4 5 5 6 6 7 9 10 10 11 11 12 11 11 11 11 10 10 11 11 11 11 10
2 2 1 2 2 2 2 3 3 3 2 2 2 1 1 1 1 1 2 2 3 4 4 5 5 6 6 8 11 11 11 12 11 11 11 11 11 10 10 10 10 10 9
1 2 2 2 2 2 3 3 3 2 1 2 2 1 1 2 1 0 1 2 2 2 3 4 5 5 6 6 8 10 11 12 11 11 11 11 11 11 11 11 11 10 10
0 0 1 2 2 3 3 3 3 3 2 1 1 2 2 1 1 1 1 1 2 1 2 2 4 5 5 5 6 7 10 11 11 11 11 11 11 11 11 11 11 11 11
1 0 1 2 2 2 2 3 3 3 3 2 1 1 1 2 1 1 1 1 1 1 2 2 3 4 4 4 5 6 8 9 10 11 11 11 11 11 12 12 12 12 12
1 0 1 1 1 1 2 2 2 3 3 2 2 1 1 1 1 2 2 2 1 1 2 2 2 2 3 4 4 5 6 7 8 8 9 10 10 10 11 11 12 12 12
1 1 1 1 1 2 2 2 2 3 2 2 1 1 2 2 2 2 3 2 2 2 2 1 1 1 2 2 4 5 7 8 8 8 8 8 9 10 10 11 12 12 12
1 1 0 1 1 1 1 2 2 2 2 2 2 2 2 2 2 2 2 2 2 2 1 1 2 2 2 2 3 6 7 7 8 8 8 8 8 9 9 10 11 11 12
1 1 1 1 1 1 1 1 1 1 1 2 2 2 2 2 2 3 3 2 1 1 1 2 1 2 2 3 5 5 5 7 8 8 8 8 8 9 10 11 11 11 11
1 0 1 1 1 1 1 1 1 1 1 1 1 1 1 1 2 2 3 3 3 2 3 2 1 2 3 3 5 4 5 6 7 7 7 7 7 8 9 10 11 11 11
0 1 1 1 1 1 1 1 1 0 1 1 1 1 1 1 1 1 2 2 3 3 3 2 2 3 3 4 5 4 5 6 7 7 7 8 8 8 9 10 11 12 12
0 0 1 1 1 1 1 1 1 1 1 0 1 1 1 1 1 1 1 2 2 2 4 3 2 3 3 4 4 4 4 5 5 7 8 9 9 9 10 10 10 11 12
1 1 1 1 1 1 1 1 1 1 1 0 0 0 1 1 1 1 1 2 2 3 3 4 3 3 4 4 4 4 4 5 5 7 8 9 9 9 9 9 9 9 10
1 0 1 1 1 1 1 1 1 1 1 1 1 1 2 1 2 2 2 2 2 2 2 3 4 3 3 3 3 3 3 3 4 6 7 8 8 9 9 9 9 10 10
1 1 1 1 1 1 1 1 1 1 0 0 1 1 2 2 3 3 2 2 2 2 2 3 3 3 3 2 2 2 3 3 4 4 4 5 6 7 7 7 8 9 9
1 1 1 1 1 1 1 1 1 1 0 0 1 1 2 2 2 2 2 2 2 2 2 2 3 3 3 2 2 2 4 4 4 3 3 3 3 4 5 6 7 8 9
0 0 1 1 1 0 1 2 1 1 0 1 1 2 2 2 2 2 2 3 3 3 4 3 3 4 4 4 3 3 3 3 3 2 2 4 3 4 5 6 7 9 10
0 0 0 0 1 1 1 0 1 1 1 1 1 2 2 2 2 2 2 2 3 4 4 4 5 5 5 5 3 3 3 4 5 3 2 4 3 4 5 6 8 9 9
0 1 1 1 0 1 1 1 1 1 0 1 2 2 2 2 2 1 1 2 2 3 3 4 5 6 5 4 4 4 4 3 3 2 2 3 3 4 5 5 7 8 9
1 1 1 0 0 1 1 2 2 0 1 1 2 2 1 2 3 2 1 2 3 4 3 3 3 4 5 4 3 1 1 1 3 3 1 2 3 4 4 4 5 6 7
1 1 1 0 0 1 2 2 2 1 0 1 2 2 2 2 3 2 1 2 3 5 4 3 3 3 3 3 2 3 3 2 2 2 1 2 2 2 3 3 4 4 4
Wind_Direction
221 267 275 264 243 186 181 187 190 167 171 187 194 200 210 212 207 208 216 217 214 214 213 214 216 213 211 213 214 212 209 209 209 209 211 211 212 212 208 205 205 207 207
217 226 231 235 235 200 190 186 185 168 174 184 195 210 218 217 214 210 213 220 220 216 214 217 220 222 219 216 216 217 216 216 216 215 214 214 215 216 213 211 211 211 210
209 202 167 184 215 187 162 153 154 156 164 167 184 204 209 209 205 209 212 219 221 220 221 223 228 229 226 225 225 223 220 218 218 218 216 216 217 218 216 215 215 214 214
203 186 171 214 211 159 141 139 149 152 157 166 177 206 194 193 203 205 204 214 219 222 223 227 232 234 231 232 230 227 224 222 221 219 217 217 218 220 218 216 218 217 220
206 190 185 215 174 137 137 149 135 140 147 153 162 197 205 196 197 197 196 212 217 219 224 228 234 234 232 233 234 232 228 228 226 222 220 218 218 219 218 217 218 219 224
216 192 188 186 156 136 128 127 133 124 137 147 125 23 307 237 202 203 202 206 216 224 227 230 233 236 235 238 240 237 233 230 228 226 226 224 224 224 219 217 218 220 223
219 200 187 167 158 156 160 147 135 127 124 118 103 46 11 360 218 211 193 200 217 226 220 225 228 230 236 242 242 239 238 234 232 230 227 225 225 224 219 217 216 218 222
217 202 172 170 159 154 150 149 145 132 133 129 133 114 11 356 356 241 191 201 221 219 223 226 223 224 231 240 243 239 237 236 234 231 230 228 225 222 221 218 217 220 223
353 198 178 167 161 161 172 175 163 156 167 160 148 151 158 228 308 341 261 215 213 218 235 237 233 232 233 236 242 239 236 236 236 236 236 234 229 224 220 221 221 222 224
340 215 177 160 156 164 179 193 179 171 167 186 201 206 195 167 178 320 333 306 243 242 257 254 251 241 234 234 237 234 238 238 239 240 240 238 234 229 225 224 225 225 225
350 4 158 144 151 164 175 181 169 166 174 185 185 177 175 167 186 199 273 307 333 301 283 269 265 253 238 228 228 234 237 240 240 241 242 240 236 235 231 228 228 228 228
359 22 103 134 157 162 174 180 170 164 169 169 179 186 184 181 189 191 230 265 293 305 305 282 275 263 248 240 238 241 239 240 242 244 244 244 241 238 235 235 233 232 232
331 342 53 116 140 179 179 164 155 169 171 173 189 206 209 216 191 179 190 234 276 301 305 273 248 252 269 270 259 252 246 244 244 247 248 247 244 241 240 237 237 236 233
275 328 60 78 98 122 132 126 144 174 164 188 211 202 209 224 201 186 186 191 250 287 275 266 275 252 269 274 268 259 257 251 247 247 249 249 248 246 244 242 239 236 232
249 66 80 80 79 88 96 114 121 162 153 184 211 211 219 238 219 210 197 192 200 252 274 259 258 269 273 274 276 264 255 254 247 247 247 251 254 254 252 248 241 235 232
272 105 90 91 94 95 102 109 119 169 148 230 222 210 233 242 230 208 202 207 209 220 252 258 260 278 277 283 283 271 261 255 250 250 252 254 253 255 257 251 242 238 233
279 167 132 120 122 113 114 112 114 107 123 329 303 247 257 240 221 224 216 218 221 221 250 275 263 279 265 270 285 276 271 262 262 258 257 255 253 254 256 253 247 242 234
248 194 147 137 157 167 151 143 174 166 152 135 303 280 278 261 251 248 229 230 232 227 232 268 282 279 267 268 272 276 279 271 270 270 264 261 256 256 256 252 247 244 238
242 185 137 162 196 196 158 155 156 169 167 212 232 229 256 236 255 258 242 236 238 233 230 246 273 273 276 288 282 281 282 279 281 278 267 259 254 253 255 254 250 246 241
216 214 187 187 201 196 169 165 149 139 123 307 277 252 252 235 238 241 245 234 227 229 233 241 265 277 277 287 272 278 287 276 277 288 276 267 262 255 257 257 252 248 243
206 189 167 165 158 175 199 165 168 188 170 330 316 283 261 249 241 237 242 226 210 226 234 245 262 275 271 281 272 264 269 282 271 262 278 281 277 268 267 264 257 254 247
147 117 183 192 180 225 88 131 152 198 213 255 292 308 295 291 283 266 255 235 214 225 236 247 256 263 270 262 261 258 265 279 281 260 261 279 271 266 269 265 264 255 251
73 3 267 198 214 311 48 121 134 171 206 259 276 295 305 313 310 277 275 271 265 252 235 238 250 258 265 262 253 255 252 260 268 275 261 277 266 266 273 271 259 251 250
293 256 246 240 238 344 44 65 81 131 227 295 289 283 282 300 307 293 275 285 283 284 261 248 255 265 267 265 246 244 249 266 285 277 241 265 277 276 282 278 261 245 245
285 285 269 245 326 322 20 70 87 80 9 324 316 323 309 297 315 318 283 287 299 302 296 276 273 283 290 286 260 238 250 282 295 293 255 258 282 292 287 277 273 253 245
252 287 309 293 174 328 17 45 95 142 302 313 337 336 339 340 330 339 263 268 286 295 312 329 331 325 318 313 287 244 231 243 274 279 264 248 277 294 297 291 293 283 264
Height
1527 1527 1528 1529 1530 1532 1533 1535 1537 1539 1541 1542 1544 1546 1547 1549 1550 1551 1552 1554 1554 1555 1556 1557 1558 1559 1560 1561 1562 1562 1563 1564 1565 1566 1567 1568 1569 1570 1570 1571 1572 1573 1574
1528 1527 1528 1529 1530 1532 1533 1534 1536 1538 1539 1541 1543 1544 1546 1547 1548 1550 1551 1552 1553 1554 1554 1556 1557 1558 1559 1559 1560 1561 1562 1562 1563 1564 1565 1566 1567 1568 1568 1569 1570 1571 1572
1528 1528 1528 1529 1530 1531 1533 1534 1535 1537 1538 1540 1541 1543 1544 1546 1547 1548 1550 1551 1552 1552 1553 1554 1555 1556 1557 1558 1559 1559 1560 1561 1561 1562 1563 1563 1564 1565 1566 1567 1568 1569 1570
1529 1529 1529 1530 1531 1532 1533 1533 1534 1535 1537 1538 1540 1542 1543 1544 1546 1547 1548 1549 1550 1551 1552 1553 1553 1554 1555 1556 1557 1557 1558 1559 1559 1560 1560 1561 1562 1563 1564 1565 1566 1567 1568
1529 1530 1530 1530 1531 1532 1533 1534 1534 1535 1536 1538 1539 1541 1542 1543 1545 1546 1547 1547 1548 1549 1550 1550 1551 1552 1553 1554 1554 1555 1556 1556 1557 1557 1558 1559 1559 1560 1561 1562 1563 1564 1565
1530 1530 1530 1531 1532 1532 1533 1534 1534 1535 1536 1538 1539 1540 1541 1542 1543 1544 1545 1546 1547 1547 1548 1548 1549 1550 1551 1551 1552 1553 1554 1554 1555 1555 1556 1556 1557 1558 1558 1559 1560 1561 1562
1530 1531 1531 1531 1532 1533 1533 1534 1535 1536 1537 1538 1538 1539 1540 1541 1542 1543 1544 1544 1545 1546 1546 1547 1547 1548 1548 1549 1550 1551 1551 1552 1552 1552 1553 1554 1554 1555 1556 1557 1557 1558 1559
1531 1531 1531 1531 1532 1533 1533 1534 1535 1535 1536 1538 1538 1539 1539 1541 1541 1542 1542 1543 1544 1544 1545 1545 1546 1546 1546 1547 1548 1548 1549 1549 1550 1550 1551 1551 1552 1553 1553 1554 1555 1555 1556
1530 1531 1531 1531 1532 1532 1533 1533 1534 1535 1536 1537 1538 1539 1539 1539 1540 1541 1541 1542 1542 1543 1543 1544 1544 1544 1544 1545 1545 1546 1546 1546 1547 1547 1548 1549 1549 1550 1550 1551 1552 1553 1553
1531 1531 1531 1531 1531 1532 1532 1533 1534 1534 1535 1536 1537 1538 1539 1539 1539 1539 1540 1540 1541 1541 1541 1541 1542 1542 1542 1542 1543 1543 1543 1544 1544 1544 1545 1546 1546 1547 1547 1548 1549 1549 1550
1530 1530 1530 1530 1530 1531 1531 1532 1533 1533 1534 1535 1536 1536 1536 1537 1538 1538 1538 1538 1539 1539 1539 1540 1540 1540 1540 1540 1540 1540 1541 1541 1541 1542 1542 1542 1543 1543 1544 1544 1545 1546 1546
1530 1530 1530 1529 1530 1530 1530 1530 1531 1532 1533 1533 1534 1534 1535 1535 1535 1536 1535 1535 1536 1536 1537 1537 1537 1537 1537 1538 1538 1538 1538 1538 1538 1539 1539 1539 1539 1540 1540 1541 1542 1542 1543
1529 1529 1529 1529 1529 1529 1529 1529 1530 1530 1531 1531 1532 1532 1533 1533 1533 1533 1533 1533 1533 1533 1534 1534 1535 1535 1535 1535 1535 1535 1535 1535 1535 1536 1536 1536 1536 1536 1537 1538 1538 1538 1539
1528 1528 1528 1528 1528 1528 1528 1528 1529 1529 1529 1530 1530 1530 1530 1531 1531 1531 1531 1531 1531 1531 1531 1531 1532 1532 1532 1532 1532 1532 1532 1532 1532 1532 1532 1532 1533 1533 1533 1534 1534 1534 1535
1527 1527 1527 1527 1527 1527 1527 1527 1527 1527 1527 1527 1528 1528 1528 1528 1529 1529 1529 1529 1530 1528 1527 1528 1529 1529 1529 1529 1528 1528 1528 1528 1528 1529 1529 1529 1529 1529 1529 1529 1530 1530 1531
1525 1525 1525 1525 1525 1525 1525 1525 1525 1526 1526 1526 1526 1525 1525 1526 1526 1526 1526 1526 1527 1527 1525 1524 1525 1526 1525 1525 1525 1525 1524 1524 1524 1525 1525 1525 1525 1525 1525 1525 1525 1526 1527
1523 1523 1523 1523 1523 1523 1523 1523 1523 1523 1523 1523 1523 1523 1523 1523 1523 1523 1523 1523 1524 1524 1522 1522 1522 1522 1522 1521 1521 1521 1520 1520 1520 1520 1520 1520 1521 1521 1521 1521 1521 1522 1522
1521 1521 1521 1521 1521 1521 1521 1521 1521 1521 1521 1520 1521 1521 1521 1521 1521 1521 1521 1520 1521 1521 1520 1518 1518 1518 1518 1518 1517 1517 1517 1516 1516 1516 1516 1516 1516 1516 1517 1517 1517 1517 1518
1519 1518 1519 1519 1519 1519 1519 1519 1519 1519 1518 1518 1518 1518 1518 1518 1518 1518 1518 1517 1517 1517 1517 1516 1515 1514 1514 1514 1513 1513 1512 1512 1512 1512 1512 1512 1512 1512 1512 1513 1512 1512 1513
1516 1516 1516 1516 1517 1516 1516 1516 1516 1516 1516 1516 1516 1516 1516 1515 1515 1515 1515 1514 1514 1514 1514 1513 1512 1511 1510 1510 1509 1509 1508 1508 1508 1509 1508 1508 1508 1508 1508 1508 1508 1508 1509
1514 1513 1513 1513 1514 1514 1514 1514 1514 1514 1513 1513 1513 1513 1513 1513 1512 1512 1512 1512 1511 1511 1510 1509 1508 1507 1506 1506 1505 1505 1505 1505 1504 1505 1504 1504 1504 1504 1504 1504 1504 1504 1504
1511 1511 1511 1510 1510 1511 1511 1511 1511 1511 1511 1510 1510 1510 1510 1510 1509 1509 1509 1509 1509 1508 1507 1506 1505 1504 1503 1502 1502 1501 1501 1501 1500 1501 1501 1500 1500 1500 1500 1499 1499 1499 1499
1508 1508 1508 1508 1508 1508 1508 1508 1509 1508 1508 1508 1507 1507 1506 1506 1506 1506 1506 1506 1505 1504 1504 1503 1502 1501 1500 1499 1499 1498 1498 1497 1497 1497 1497 1495 1496 1495 1496 1495 1495 1495 1495
1505 1505 1505 1505 1505 1505 1506 1506 1506 1506 1505 1505 1505 1504 1504 1503 1503 1503 1502 1502 1501 1500 1500 1499 1498 1498 1497 1497 1496 1495 1494 1494 1493 1493 1493 1492 1491 1491 1491 1491 1490 1491 1491
1503 1502 1502 1502 1502 1502 1503 1503 1503 1502 1502 1502 1502 1501 1501 1500 1500 1500 1499 1498 1497 1497 1496 1496 1495 1494 1493 1493 1492 1491 1490 1490 1489 1489 1489 1488 1487 1486 1486 1486 1486 1486 1486
1501 1500 1500 1500 1500 1500 1500 1500 1500 1499 1499 1499 1498 1498 1498 1497 1497 1496 1495 1494 1493 1493 1492 1491 1491 1490 1489 1489 1488 1487 1487 1486 1485 1485 1485 1485 1483 1483 1482 1481 1482 1481 1481